Погода в Семлячики

Погода в Семлячики : погода сейчас, прогноз погоды и архив. Всё, что Вы хотите узнать о погоде в Семлячики!

Хотите узнать прогноз погоды в Семлячики? Тогда Вам сюда: Погода в Семлячики

Поиск расширенной информации на нашем сайте:

Другие новости

Новости СМИ2

Главная страница сайта

Новости сайта

03.07.2017

Напоминаем, что на нашем специализированном сайте Метеоцентр.Азия вы можете получить высокодетализированные автоматические прогнозы погоды по пунктам России, СНГ и мира в авиационном формате (включающие направление и скорость ветра, видимость, явления погоды, количество и форму облачности, нижнюю и верхнюю границу облачности).

Рекомендуем: Транспортные услуги по Перевозке пассажиров.

Погода в Семлячики - сегодня

Время (UTC), дата Ветер
(°,м/с) 
Видим.   Явления Облачность Т
(°С)
Тd
(°С)
f(%) Тe
(°С)
Pmin
(гПа)
dP
(гПа)
Po
(мм)
O2
(г/м3)
Тmin Tmax R s Состояние
почвы
03 19.10.17 030 (СВ) 13-17{18}  20000 м    10/10 600 м 
[Sc]
+5.5 -0.3 66 +1  1008.7  -1.4  754  298           
06 19.10.17 030 (СВ) 3{17}  20000 м    10/10 600 м 
[Sc]
+5.2 -1.9 60 +4  1009.4  0.7  755  299           
09 19.10.17 320 (СЗ) 20000 м    10/10 600 м 
[Sc]
+4.1 -5.8 48 +1  1010.5  1.1  755  300    +5.8       
12 19.10.17 320 (СЗ) 20000 м    10/10 600 м 
[Sc]
+3.9 -6.7 46 +1  1011.4  0.9  756  301           
15 19.10.17 320 (СЗ) 6-10{11}  20000 м    10/10 600 м 
[Sc]
+3.5 -6.1 49 +1  1012.7  1.3  757  302           
18 19.10.17 320 (СЗ) 7-11{12}  20000 м    10/10 600 м 
[Sc]
+3 -5.4 54 1014.9  2.1  759  303           
21 19.10.17 340 (С) 5{13}  20000 м    10/6 600 м средняя 
[Sc|Ac trans]
+3 -4.5 58 +1  1017.3  2.5  761  304  +2.9         
00 20.10.17 340 (С) 6{11}  20000 м    10/3 600 м средняя, верхняя 
[Sc|Ac As|Cs]
+4.6 -5.1 49 +2  1018.7  1.3  761  302           
03 20.10.17 350 (С) 4{11}  20000 м    9/0 средняя, верхняя 
[Ac As|Cs]
+8.2 -5.9 36 +7  1018.3  -0.3  761  298           
06 20.10.17 010 (С) 20000 м    9/3 600 м средняя, верхняя 
[Sc|Ac trans|Ci sp]
+4.6 -5.1 49 +2  1020.1  1.8  763  303           
09 20.10.17 320 (СЗ) 5{11}  20000 м    10/4 600 м средняя 
[Sc|Ac trans]
+2.9 -8.5 43 1022.3  2.1  764  306    +8.2       
12 20.10.17 320 (СЗ) 7-11{11}  20000 м    8/3 600 м средняя 
[Sc|Ac trans]
+0.8 -10.9 41 -3  1023.9  1.6  765  309           
15 20.10.17 320 (СЗ) 8-13{15}  20000 м    ясно 
+0.4 -10.2 45 -4  1025.1  1.2  766  309           
18 20.10.17 330 (СЗ) 10-15{17}  20000 м    ясно 
+0.4 -10.3 44 -4  1025.9  0.8  767  310           
21 20.10.17 340 (С) 7{18}  20000 м    ясно 
+0.2 -9.7 47 -4  1027.9  1.9  768  310  -0.5         
00 21.10.17 340 (С) 5-10{12}  20000 м    ясно 
+4.4 -10.9 32 +2  1028.2  0.4  769  306           
03 21.10.17 290 (З) 4{15}  20000 м    ясно 
+6.7 -11.8 25 +5  1027.5  -0.7  768  303           
06 21.10.17 340 (С) 4{14}  20000 м    ясно 
+4.5 -11.3 31 +3  1028.4  0.9  769  306           
09 21.10.17 340 (С) 20000 м    ясно 
+2.3 -11 37 -1  1030.1  1.7  770  309    +6.8       
12 21.10.17 330 (СЗ) 4{11}  20000 м    ясно 
+0.9 -10.4 43 -1  1031.2  1.1  771  311           
15 21.10.17 320 (СЗ) 8-11{12}  20000 м    ясно 
-0 -10.5 45 -4  1031.6  0.3  771  312           
18 21.10.17 320 (СЗ) 6{13}  20000 м    ясно 
-0.5 -10.8 46 -4  1032  0.4  771  312           
21 21.10.17 330 (СЗ) 2{11}  20000 м    ясно 
+0.2 -11 43 -1  1032.1  0.1  771  312  -1.8         
00 22.10.17 180 (Ю) 20000 м    3/0 верхняя 
[Ci fib]
+4 -7.7 42 +4  1031.2  -0.8  771  307           
03 22.10.17 190 (Ю) 20000 м    ясно 
+5 -1.3 64 +2  1029.2  -2  769  305           
Время (UTC), дата Ветер
(°,м/с) 
Видим.   Явления Облачность Т
(°С)
Тd
(°С)
f(%) Тe
(°С)
Pmin
(гПа)
dP
(гПа)
Po
(мм)
O2
(г/м3)
Тmin Tmax R s Состояние
почвы

Для получения пояснительной информации подведите курсор к названию столбца.

ПОГОДА в Семлячики - архив

Всё, что Вы хотите узнать о погоде в Семлячики - удобно и подробно!

Выберите нужную дату (начиная с 1 января 2015* года) и нажмите кнопку "Найти".
Будут отображены архивные сводки погоды по пункту Семлячики, начиная с указанной даты.


Отображать данные в формате CSV (для использования в таблицах Excel)


Внимание! Наш архив погоды предназначен исключительно для личного некоммерческого использования в познавательных целях. Если Вам необходимы официальные справки о состоянии погоды (для производственных, юридических, коммерческих и т.п. целей), обращайтесь в органы Росгидромета.

*Примечание: данная дата относится к архиву по метеостанциям СССР (Россия, СНГ, Балтия).
Архив по метеостанциям Зарубежной Европы и Азии (кроме Китая) хранится 10 дней, по другим регионам земного шара (Китай, Африка, Америка, Австралия, Океания) - 1 день.

Семлячики - район местоположения метеостанции


Название, широта, долгота, высота метеостанции:
Семлячики 54.1°ш. 160°д. 27 м над ур. моря [Российская Федерация]

Дополнительная информация

В oтличие oт бoльшинства пoгoдных сайтoв мы публикуем пoдрoбную метеoинфoрмацию в детальнoм прoфессиoнальнoм фoрмате.

Характеристики температуры и влажнoсти вoздуха измеряются на высoте 2 м в тени вдали oт зданий и деревьев.
Скoрoсть ветра измеряется на высoте 10 м (на урoвне рoста челoвека скoрoсть ветра ниже в 1.5-2 раза). Если метеoстанция нахoдится в гoрoде или в лесу, тo скoрoсть ветра занижена на 2-4 м/с пo сравнению с oткрытым местoм. Скoрoсть ветра над акватoриями крупных рек и oзёр, а также на вершинах хoлмoв на 2-5 м/с выше, чем в oбычных услoвиях.
Атмoсфернoе давление в разных тoчках местнoсти мoжет значительнo oтличаться oт давления на метеoстанции, в зависимoсти oт услoвий рельефа (при пoдъёме на 10 м давление пoнижается примернo на 1 мм рт.ст.).